User: anonymous   Login
Location: Bonac
(42.8765°N, 0.9753°E)
Time: 14:28:57
(UTC+00:00)
Language:

PSLV R/B - Orbit

View from above orbital plane
View from above orbital plane
View from above satellite
View from above satellite

Ground track
Ground track

The orbit is defined by the following mean orbital elements,

1 29713U          26074.33457803 +.00000000 +00000-0 +25339-3 0 00002
2 29713  98.0289 103.9997 0020400  57.5484 302.7706 14.97953656    07
Epoch (UTC): 15 March 2026 08:01:47
Eccentricity: 0.0020400
inclination: 98.0289°
perigee height: 559 km
apogee height: 587 km
right ascension of ascending node: 103.9997°
argument of perigee: 57.5484°
revolutions per day: 14.97953656
mean anomaly at epoch: 302.7706°

The dashed part of the orbit path shows where the satellite is in the earth's shadow,  

DLR